KA8DUX-2 Weather Reports


Display with metric or nautical units.
time (UTC)temp
F
wind
direction
speed
MPH
gust
MPH
rain 1hr
in
rain 24hr
in
rain mn
in
humidity
%
barometer
mb
20260507161532 53 273 3.0 5.0 0.00 0.00 0.00 45 1012.8
20260507161029 52 99 2.0 3.0 0.00 0.00 0.00 46 1013.1
20260507160525 52 293 3.0 3.0 0.00 0.00 0.00 45 1012.7
20260507160022 54 304 5.0 6.0 0.00 0.00 0.00 46 1013.2
20260507155517 51 114 2.0 3.0 0.00 0.00 0.00 48 1013.0
20260507155014 53 155 5.0 7.0 0.00 0.00 0.00 46 1013.0
20260507154511 52 119 2.0 2.0 0.00 0.00 0.00 49 1012.9
20260507154009 52 167 3.0 6.0 0.00 0.00 0.00 48 1013.2
20260507153505 53 272 4.0 5.0 0.00 0.00 0.00 47 1013.0
20260507153001 52 228 4.0 5.0 0.00 0.00 0.00 46 1013.0
20260507152457 53 278 3.0 3.0 0.00 0.00 0.00 45 1013.0
20260507151954 52 118 1.0 1.0 0.00 0.00 0.00 50 1012.9
20260507151450 51 298 2.0 3.0 0.00 0.00 0.00 48 1013.0
20260507150946 53 211 3.0 5.0 0.00 0.00 0.00 44 1012.9
20260507150444 52 319 2.0 3.0 0.00 0.00 0.00 46 1012.6
20260507145940 51 189 4.0 5.0 0.00 0.00 0.00 46 1012.9
20260507145435 52 81 3.0 5.0 0.00 0.00 0.00 46 1012.9
20260507144933 52 256 3.0 3.0 0.00 0.00 0.00 46 1012.7
20260507144430 53 132 2.0 3.0 0.00 0.00 0.00 45 1012.9
20260507143927 51 138 0.0 1.0 0.00 0.00 0.00 47 1012.8
20260507143424 51 128 3.0 5.0 0.00 0.00 0.00 46 1012.9
20260507142920 51 159 1.0 1.0 0.00 0.00 0.00 49 1012.9
20260507142416 51 241 2.0 2.0 0.00 0.00 0.00 49 1013.0
20260507141914 50 140 2.0 2.0 0.00 0.00 0.00 49 1013.2
20260507141410 50 300 3.0 5.0 0.00 0.00 0.00 50 1013.0
20260507140907 50 13 4.0 6.0 0.00 0.00 0.00 50 1013.1
20260507140403 49 139 1.0 1.0 0.00 0.00 0.00 53 1013.3
20260507135901 49 252 3.0 5.0 0.00 0.00 0.00 51 1013.3
20260507135358 49 108 0.0 0.0 0.00 0.00 0.00 52 1012.9
20260507134855 49 271 2.0 3.0 0.00 0.00 0.00 52 1013.1
20260507134351 49 191 3.0 3.0 0.00 0.00 0.00 53 1012.8
20260507133847 49 148 1.0 1.0 0.00 0.00 0.00 54 1013.0
20260507133343 48 271 3.0 5.0 0.00 0.00 0.00 56 1013.1
20260507132842 47 229 1.0 2.0 0.00 0.00 0.00 60 1012.8
20260507132338 46 137 1.0 1.0 0.00 0.00 0.00 60 1013.0
20260507131835 47 273 3.0 3.0 0.00 0.00 0.00 59 1012.8
20260507131331 46 290 1.0 1.0 0.00 0.00 0.00 61 1012.9
20260507130828 46 119 0.0 1.0 0.00 0.00 0.00 63 1012.9
20260507130325 45 179 1.0 1.0 0.00 0.00 0.00 64 1012.7
20260507125825 45 286 2.0 3.0 0.00 0.00 0.00 64 1013.0
20260507125321 44 157 1.0 1.0 0.00 0.00 0.00 67 1012.7
20260507124819 44 245 3.0 5.0 0.00 0.00 0.00 67 1012.7
20260507124315 43 195 1.0 2.0 0.00 0.00 0.00 67 1012.8
20260507123814 43 164 1.0 1.0 0.00 0.00 0.00 69 1012.7
20260507123310 43 293 2.0 2.0 0.00 0.00 0.00 71 1012.9
20260507122807 43 221 3.0 3.0 0.00 0.00 0.00 72 1012.5
20260507122306 42 135 0.0 1.0 0.00 0.00 0.00 74 1012.5
20260507121758 42 193 1.0 1.0 0.00 0.00 0.00 74 1012.5
20260507121254 41 245 2.0 3.0 0.00 0.00 0.00 76 1012.5
20260507120750 41 267 3.0 3.0 0.00 0.00 0.00 77 1012.6
20260507120247 41 139 0.0 1.0 0.00 0.00 0.00 78 1012.5
20260507115743 40 182 0.0 1.0 0.00 0.00 0.00 78 1012.5
20260507115239 40 138 0.0 0.0 0.00 0.00 0.00 79 1012.6
20260507114735 40 180 2.0 3.0 0.00 0.00 0.00 80 1012.5
20260507114233 39 148 0.0 0.0 0.00 0.00 0.00 81 1012.5
20260507113730 39 146 0.0 0.0 0.00 0.00 0.00 82 1012.4
20260507113227 39 144 0.0 0.0 0.00 0.00 0.00 82 1012.4
20260507112724 38 127 0.0 0.0 0.00 0.00 0.00 84 1012.4
20260507112221 37 206 1.0 2.0 0.00 0.00 0.00 85 1012.1
20260507111718 36 149 0.0 0.0 0.00 0.00 0.00 87 1012.3
20260507111215 36 136 0.0 0.0 0.00 0.00 0.00 87 1012.2
20260507110711 36 128 0.0 0.0 0.00 0.00 0.00 87 1012.3
20260507110208 36 138 0.0 0.0 0.00 0.00 0.00 86 1012.1
20260507105705 36 136 0.0 0.0 0.00 0.00 0.00 87 1012.0
20260507105201 35 140 0.0 0.0 0.00 0.00 0.00 86 1011.8
20260507104659 36 136 0.0 0.0 0.00 0.00 0.00 86 1011.8
20260507104154 36 130 0.0 0.0 0.00 0.00 0.00 86 1012.0
20260507103650 35 134 0.0 0.0 0.00 0.00 0.00 86 1012.0
20260507103147 35 130 0.0 0.0 0.00 0.00 0.00 85 1012.0
20260507102644 35 137 0.0 0.0 0.00 0.00 0.00 85 1011.7
20260507102140 36 129 0.0 0.0 0.00 0.00 0.00 84 1012.0
20260507101636 36 131 0.0 0.0 0.00 0.00 0.00 84 1011.7
20260507101132 36 131 0.0 0.0 0.00 0.00 0.00 83 1011.8
20260507100630 36 130 0.0 0.0 0.00 0.00 0.00 82 1011.6
20260507100128 36 133 0.0 0.0 0.00 0.00 0.00 82 1011.8
20260507095626 37 132 0.0 0.0 0.00 0.00 0.00 80 1011.6
20260507095122 37 129 0.0 0.0 0.00 0.00 0.00 80 1011.8
20260507094618 37 136 0.0 0.0 0.00 0.00 0.00 80 1011.9
20260507094115 37 133 0.0 0.0 0.00 0.00 0.00 80 1012.0
20260507093612 38 139 0.0 0.0 0.00 0.00 0.00 79 1011.8
20260507093111 38 136 0.0 0.0 0.00 0.00 0.00 78 1011.9
20260507092607 38 131 0.0 0.0 0.00 0.00 0.00 77 1011.8
20260507092104 39 131 0.0 0.0 0.00 0.00 0.00 77 1011.7
20260507091601 39 124 0.0 0.0 0.00 0.00 0.00 76 1011.9
20260507091056 39 130 0.0 0.0 0.00 0.00 0.00 77 1011.8
20260507090552 39 130 0.0 0.0 0.00 0.00 0.00 76 1011.9
20260507090050 39 131 0.0 0.0 0.00 0.00 0.00 75 1012.2
20260507085547 39 130 0.0 0.0 0.00 0.00 0.00 75 1012.0
20260507085044 40 129 0.0 0.0 0.00 0.00 0.00 74 1012.1
20260507084540 40 134 0.0 0.0 0.00 0.00 0.00 73 1012.1
20260507084037 40 131 0.0 0.0 0.00 0.00 0.00 72 1011.8
20260507083533 40 133 0.0 0.0 0.00 0.00 0.00 71 1012.0
20260507083031 41 131 0.0 0.0 0.00 0.00 0.00 70 1012.2
20260507082526 41 137 0.0 0.0 0.00 0.00 0.00 70 1011.9
20260507082023 41 135 0.0 0.0 0.00 0.00 0.00 70 1012.1
20260507081519 41 131 0.0 0.0 0.00 0.00 0.00 70 1011.9
20260507081016 41 127 0.0 0.0 0.00 0.00 0.00 69 1011.8
20260507080512 41 127 0.0 0.0 0.00 0.00 0.00 69 1012.0
20260507080009 42 126 0.0 0.0 0.00 0.00 0.00 69 1011.9
20260507075504 42 128 0.0 0.0 0.00 0.00 0.00 69 1011.9
20260507075001 42 102 0.0 0.0 0.00 0.00 0.00 70 1012.1
20260507074458 41 121 0.0 0.0 0.00 0.00 0.00 69 1012.2
20260507073956 41 134 0.0 0.0 0.00 0.00 0.00 70 1012.2
20260507073452 41 129 0.0 0.0 0.00 0.00 0.00 70 1012.3
20260507072948 41 136 0.0 0.0 0.00 0.00 0.00 69 1012.1
20260507072446 42 127 0.0 0.0 0.00 0.00 0.00 68 1012.2
20260507071943 42 123 0.0 0.0 0.00 0.00 0.00 69 1012.1
20260507071440 42 130 0.0 0.0 0.00 0.00 0.00 69 1012.1
20260507070937 42 124 0.0 0.0 0.00 0.00 0.00 68 1012.0
20260507070434 42 150 0.0 0.0 0.00 0.00 0.00 68 1012.2
20260507065930 43 113 0.0 0.0 0.00 0.00 0.00 67 1012.0
20260507065427 43 87 1.0 1.0 0.00 0.00 0.00 67 1012.0
20260507064925 43 122 1.0 1.0 0.00 0.00 0.00 66 1012.4
20260507064423 44 101 2.0 2.0 0.00 0.00 0.00 66 1012.1
20260507063921 44 127 0.0 0.0 0.00 0.00 0.00 66 1012.1
20260507063417 44 146 2.0 2.0 0.00 0.00 0.00 64 1012.3
20260507062914 44 80 0.0 1.0 0.00 0.00 0.00 65 1012.4
20260507062411 45 147 0.0 0.0 0.00 0.00 0.00 64 1012.2
20260507061903 45 129 1.0 2.0 0.00 0.00 0.00 64 1012.3
20260507061401 45 119 2.0 2.0 0.00 0.00 0.00 64 1012.2
20260507060859 45 287 5.0 6.0 0.00 0.00 0.00 65 1011.9
20260507060355 44 126 0.0 1.0 0.00 0.00 0.00 65 1012.0
20260507055852 44 139 0.0 1.0 0.00 0.00 0.00 67 1012.1
20260507055347 44 139 1.0 1.0 0.00 0.00 0.00 68 1012.2
20260507054845 44 132 0.0 0.0 0.00 0.00 0.00 69 1012.2
20260507054340 43 101 0.0 0.0 0.00 0.00 0.00 71 1012.2
20260507053838 43 131 0.0 0.0 0.00 0.00 0.00 70 1012.2
20260507053336 43 131 0.0 0.0 0.00 0.00 0.00 69 1012.1
20260507052834 43 131 0.0 0.0 0.00 0.00 0.00 70 1012.3
20260507052331 43 130 0.0 0.0 0.00 0.00 0.00 70 1012.2
20260507051828 43 130 0.0 0.0 0.00 0.00 0.00 69 1012.3
20260507051326 43 130 0.0 0.0 0.00 0.00 0.00 68 1012.3
20260507050822 43 130 0.0 0.0 0.00 0.00 0.00 68 1012.2
20260507050319 43 130 0.0 0.0 0.00 0.00 0.00 68 1012.3
20260507045816 43 130 0.0 0.0 0.00 0.00 0.00 67 1012.2
20260507045312 43 135 0.0 0.0 0.00 0.00 0.00 67 1012.2
20260507044809 43 124 0.0 0.0 0.00 0.00 0.00 67 1012.2
20260507044306 43 128 0.0 0.0 0.00 0.00 0.00 66 1012.3
20260507043802 43 128 0.0 0.0 0.00 0.00 0.00 65 1012.3
20260507043259 44 128 0.0 0.0 0.00 0.00 0.00 64 1012.2
20260507042755 44 128 0.0 0.0 0.00 0.00 0.00 64 1012.3
20260507042250 44 128 0.0 0.0 0.00 0.00 0.00 63 1012.2
20260507041748 44 130 0.0 0.0 0.00 0.00 0.00 63 1012.5
20260507041244 44 126 0.0 0.0 0.00 0.00 0.00 63 1012.4
20260507040741 44 124 0.0 0.0 0.00 0.00 0.00 62 1012.3
20260507040237 44 133 0.0 0.0 0.00 0.00 0.00 62 1012.1
20260507035734 44 130 0.0 0.0 0.00 0.00 0.00 61 1012.4
20260507035229 45 128 0.0 0.0 0.00 0.00 0.00 61 1012.3
20260507034727 45 131 0.0 0.0 0.00 0.00 0.00 59 1012.4
20260507034223 45 134 0.0 0.0 0.00 0.00 0.00 57 1012.3
20260507033722 46 132 0.0 0.0 0.00 0.00 0.00 57 1012.4
20260507033219 46 132 0.0 0.0 0.00 0.00 0.00 56 1012.3
20260507032717 46 126 0.0 0.0 0.00 0.00 0.00 56 1012.3
20260507032212 46 131 0.0 0.0 0.00 0.00 0.00 56 1012.5
20260507031709 47 123 0.0 0.0 0.00 0.00 0.00 55 1012.4
20260507031206 47 130 0.0 0.0 0.00 0.00 0.00 54 1012.5
20260507030703 47 143 0.0 0.0 0.00 0.00 0.00 54 1012.6
20260507030200 47 137 0.0 0.0 0.00 0.00 0.00 53 1012.6
20260507025657 48 131 0.0 0.0 0.00 0.00 0.00 53 1012.4
20260507025154 48 141 0.0 0.0 0.00 0.00 0.00 51 1012.4
20260507024652 48 133 0.0 0.0 0.00 0.00 0.00 51 1012.5
20260507024149 48 135 0.0 0.0 0.00 0.00 0.00 52 1012.3
20260507023644 48 134 0.0 0.0 0.00 0.00 0.00 51 1012.4
20260507023142 48 130 0.0 0.0 0.00 0.00 0.00 51 1012.2
20260507022639 48 133 0.0 0.0 0.00 0.00 0.00 51 1012.3
20260507022135 48 123 0.0 0.0 0.00 0.00 0.00 50 1012.4
20260507021631 48 161 1.0 1.0 0.00 0.00 0.00 50 1012.2
20260507021126 48 141 0.0 1.0 0.00 0.00 0.00 49 1012.4
20260507020625 49 144 0.0 0.0 0.00 0.00 0.00 51 1012.1
20260507020121 49 132 0.0 0.0 0.00 0.00 0.00 50 1012.2
20260507015620 49 144 0.0 0.0 0.00 0.00 0.00 48 1012.1
20260507015117 49 140 0.0 0.0 0.00 0.00 0.00 49 1011.9
20260507014613 49 147 0.0 0.0 0.00 0.00 0.00 48 1012.0
20260507014109 49 125 0.0 0.0 0.00 0.00 0.00 47 1012.1
20260507013606 49 206 1.0 1.0 0.00 0.00 0.00 47 1011.9
20260507013103 49 137 0.0 0.0 0.00 0.00 0.00 47 1012.0
20260507012600 50 105 0.0 1.0 0.00 0.00 0.00 47 1011.9
20260507012056 50 137 0.0 0.0 0.00 0.00 0.00 47 1012.2
20260507011554 50 140 1.0 1.0 0.00 0.00 0.00 46 1011.9
20260507011050 50 175 1.0 1.0 0.00 0.00 0.00 46 1011.9
20260507010544 50 130 0.0 0.0 0.00 0.00 0.00 47 1012.1
20260507010041 50 194 0.0 1.0 0.00 0.00 0.00 47 1011.9
20260507005539 50 249 1.0 1.0 0.00 0.00 0.00 46 1011.9
20260507005034 50 158 0.0 1.0 0.00 0.00 0.00 47 1011.8
20260507004532 50 266 0.0 0.0 0.00 0.00 0.00 46 1011.9
20260507004029 50 142 1.0 1.0 0.00 0.00 0.00 45 1011.9
20260507003525 50 210 1.0 2.0 0.00 0.00 0.00 45 1011.8
20260507003020 50 160 0.0 0.0 0.00 0.00 0.00 45 1011.9
20260507002516 51 139 0.0 0.0 0.00 0.00 0.00 44 1011.6
20260507002013 51 137 0.0 0.0 0.00 0.00 0.00 47 1011.6
20260507001509 51 178 1.0 2.0 0.00 0.00 0.00 44 1011.6
20260507001007 51 156 1.0 1.0 0.00 0.00 0.00 45 1011.5
20260507000502 51 161 1.0 1.0 0.00 0.00 0.00 44 1011.4
20260506235958 51 147 2.0 2.0 0.00 0.00 0.00 44 1011.4
20260506235456 51 155 1.0 2.0 0.00 0.00 0.00 43 1011.6
20260506234952 51 200 3.0 3.0 0.00 0.00 0.00 43 1011.5
20260506234449 52 130 0.0 1.0 0.00 0.00 0.00 44 1011.5
20260506233947 52 250 2.0 2.0 0.00 0.00 0.00 42 1011.5
20260506233443 52 229 3.0 5.0 0.00 0.00 0.00 42 1011.8
20260506232940 52 249 3.0 3.0 0.00 0.00 0.00 42 1011.7
20260506232436 52 181 2.0 2.0 0.00 0.00 0.00 42 1011.1
20260506231932 52 242 1.0 1.0 0.00 0.00 0.00 42 1011.4
20260506231429 53 158 2.0 3.0 0.00 0.00 0.00 42 1011.1
20260506230926 53 177 0.0 1.0 0.00 0.00 0.00 44 1011.2
20260506230423 53 150 1.0 2.0 0.00 0.00 0.00 43 1011.6
20260506225919 53 136 3.0 5.0 0.00 0.00 0.00 42 1011.4
20260506225417 53 221 3.0 3.0 0.00 0.00 0.00 41 1011.2
20260506224914 53 172 4.0 5.0 0.00 0.00 0.00 40 1011.4
20260506224411 54 164 1.0 1.0 0.00 0.00 0.00 40 1011.4
20260506223907 55 175 5.0 7.0 0.00 0.00 0.00 39 1011.5
20260506223403 55 228 3.0 3.0 0.00 0.00 0.00 39 1011.5
20260506222900 55 168 1.0 1.0 0.00 0.00 0.00 40 1011.6
20260506222356 55 181 3.0 3.0 0.00 0.00 0.00 39 1011.4
20260506221854 56 249 5.0 7.0 0.00 0.00 0.00 38 1011.1
20260506221351 57 177 2.0 2.0 0.00 0.00 0.00 38 1011.5
20260506220848 55 282 3.0 5.0 0.00 0.00 0.00 39 1011.5
20260506220343 55 192 4.0 7.0 0.00 0.00 0.00 39 1011.2
20260506215841 55 142 1.0 2.0 0.00 0.00 0.00 41 1011.2
20260506215336 56 212 1.0 2.0 0.00 0.00 0.00 39 1011.5
20260506214833 55 240 3.0 5.0 0.00 0.00 0.00 39 1011.2
20260506214329 56 323 3.0 3.0 0.00 0.00 0.00 39 1011.4
20260506213828 56 193 3.0 3.0 0.00 0.00 0.00 38 1011.2
20260506213325 56 227 3.0 5.0 0.00 0.00 0.00 38 1011.4
20260506212822 56 250 2.0 2.0 0.00 0.00 0.00 38 1011.4
20260506212317 56 204 3.0 6.0 0.00 0.00 0.00 39 1011.2
20260506211813 56 227 2.0 2.0 0.00 0.00 0.00 38 1011.1
20260506211309 56 259 3.0 3.0 0.00 0.00 0.00 37 1011.5
20260506210807 57 185 0.0 1.0 0.00 0.00 0.00 39 1011.4
20260506210303 57 237 3.0 5.0 0.00 0.00 0.00 37 1011.5
20260506205800 57 45 1.0 1.0 0.00 0.00 0.00 39 1011.6
20260506205256 56 214 3.0 3.0 0.00 0.00 0.00 36 1011.2
20260506204753 57 137 2.0 2.0 0.00 0.00 0.00 38 1011.4
20260506204251 56 320 3.0 6.0 0.00 0.00 0.00 39 1011.4
20260506203748 55 278 3.0 3.0 0.00 0.00 0.00 38 1011.4
20260506203245 56 207 1.0 2.0 0.00 0.00 0.00 38 1011.2
20260506202742 56 243 1.0 2.0 0.00 0.00 0.00 38 1011.6
20260506202239 56 210 3.0 3.0 0.00 0.00 0.00 37 1011.4
20260506201736 55 343 3.0 5.0 0.00 0.00 0.00 38 1011.6
20260506201232 57 254 3.0 6.0 0.00 0.00 0.00 35 1011.6
20260506200729 58 181 3.0 6.0 0.00 0.00 0.00 36 1012.0
20260506200226 58 206 2.0 3.0 0.00 0.00 0.00 35 1011.7
20260506195722 57 270 3.0 3.0 0.00 0.00 0.00 35 1011.6
20260506195219 56 152 2.0 2.0 0.00 0.00 0.00 37 1011.7
20260506194716 55 135 2.0 2.0 0.00 0.00 0.00 38 1012.0
20260506194212 55 252 2.0 2.0 0.00 0.00 0.00 39 1011.9
20260506193710 56 336 4.0 5.0 0.00 0.00 0.00 37 1011.9
20260506193202 55 200 4.0 5.0 0.00 0.00 0.00 38 1011.8
20260506192658 55 245 1.0 1.0 0.00 0.00 0.00 40 1011.7
20260506192154 55 205 3.0 3.0 0.00 0.00 0.00 39 1012.0
20260506191651 55 189 3.0 3.0 0.00 0.00 0.00 41 1011.8
20260506191147 54 331 2.0 2.0 0.00 0.00 0.00 39 1011.5
20260506190645 55 195 2.0 3.0 0.00 0.00 0.00 38 1012.0
20260506190141 57 137 2.0 2.0 0.00 0.00 0.00 37 1012.0
20260506185638 54 145 0.0 1.0 0.00 0.00 0.00 40 1011.8
20260506185135 55 308 4.0 5.0 0.00 0.00 0.00 39 1011.8
20260506184632 55 253 3.0 5.0 0.00 0.00 0.00 39 1011.7
20260506184130 55 274 3.0 5.0 0.00 0.00 0.00 37 1011.8
20260506183626 53 299 2.0 3.0 0.00 0.00 0.00 39 1011.7
20260506183122 54 342 4.0 6.0 0.00 0.00 0.00 38 1011.8
20260506182620 56 141 3.0 3.0 0.00 0.00 0.00 38 1011.8
20260506182116 56 224 4.0 5.0 0.00 0.00 0.00 35 1011.8
20260506181615 57 323 7.0 13.0 0.00 0.00 0.00 36 1011.7
20260506181112 56 256 5.0 7.0 0.00 0.00 0.00 37 1011.9
20260506180608 55 190 1.0 1.0 0.00 0.00 0.00 40 1011.6
20260506180105 55 124 1.0 2.0 0.00 0.00 0.00 40 1011.7
20260506175601 55 195 2.0 3.0 0.00 0.00 0.00 39 1011.7
20260506175057 55 327 3.0 5.0 0.00 0.00 0.00 37 1011.6
20260506174556 55 48 3.0 5.0 0.00 0.00 0.00 40 1011.8
20260506174051 57 254 3.0 3.0 0.00 0.00 0.00 36 1011.7
20260506173549 55 304 1.0 3.0 0.00 0.00 0.00 41 1011.8
20260506173046 55 255 2.0 2.0 0.00 0.00 0.00 38 1011.7
20260506172544 54 224 2.0 2.0 0.00 0.00 0.00 39 1011.8
20260506172040 53 280 2.0 2.0 0.00 0.00 0.00 41 1011.9
20260506171537 53 138 0.0 1.0 0.00 0.00 0.00 43 1012.1
20260506171034 53 197 2.0 3.0 0.00 0.00 0.00 44 1012.1
20260506170532 54 232 1.0 1.0 0.00 0.00 0.00 41 1011.9
20260506170024 55 243 1.0 2.0 0.00 0.00 0.00 40 1012.0
20260506165522 56 188 2.0 2.0 0.00 0.00 0.00 39 1012.1
20260506165018 57 144 1.0 2.0 0.00 0.00 0.00 39 1012.1
20260506164515 54 292 1.0 2.0 0.00 0.00 0.00 42 1012.0
20260506164012 53 311 3.0 3.0 0.00 0.00 0.00 42 1012.1
20260506163508 54 349 3.0 3.0 0.00 0.00 0.00 41 1012.1
20260506163004 54 132 0.0 0.0 0.00 0.00 0.00 40 1012.0
20260506162501 56 69 1.0 2.0 0.00 0.00 0.00 40 1012.0
20260506161957 56 158 0.0 0.0 0.00 0.00 0.00 41 1012.2